Weather observations for the past three days for
Pease Air Force Base / Portsmouth
Imperial (Metric)
Date Time (edt) Wind (mph) Vis. (mi.) Weather Sky Cond. Temperature (ºF) Relative Humidity Wind Chill (°F) Heat Index (°F) Pressure Precipitation (in)
Air Dwpt 6 hour altimeter (in) sea level (mb) 1 hr 3 hr 6 hr
Max. Min.
15 22:55 NW 3 10.00 A Few Clouds FEW070 59.4 44.6 58% 30.1 1019.5
15 21:55 NW 5 10.00 A Few Clouds FEW070 62.1 42.6 49% 30.08 1018.8
15 20:55 NW 8 10.00 A Few Clouds FEW070 64.2 42.4 45% 30.05 0.0
15 19:55 NW 10 10.00 A Few Clouds FEW070 68.2 42.3 76.8 68.2 39% 30.02 1016.8
15 18:55 NW 9 10.00 A Few Clouds FEW070 71.8 41.9 34% 29.99 1015.8
15 17:55 NW 13 10.00 A Few Clouds FEW070 74.1 42.4 32% 29.98 1015.4
15 16:55 NW 14 10.00 A Few Clouds FEW070 75.7 42.1 30% 77 29.96 1014.8
15 15:55 NW 10 G 18 10.00 A Few Clouds FEW060 75.7 40.3 28% 77 29.95 1014.4
15 14:55 NW 13 G 20 10.00 A Few Clouds FEW060 76.3 41.7 29% 77 29.94 1014.1
15 13:55 NW 10 G 21 10.00 A Few Clouds FEW060 FEW100 75.2 43.3 75.6 68.4 32% 77 29.93 1013.7
15 12:55 NW 12 G 21 10.00 A Few Clouds FEW065 FEW200 74.7 42.8 32% 29.93 1013.7
15 11:55 NW 16 10.00 Partly Cloudy FEW065 SCT200 74.5 46.4 37% 29.91 1013.1
15 10:55 NW 10 10.00 Mostly Cloudy FEW030 SCT060 BKN200 71.6 51.4 49% 29.91 1013.1
15 09:55 N 12 10.00 Mostly Cloudy FEW029 FEW050 SCT100 BKN200 72.1 55.6 56% 29.9 1012.7
15 08:55 NW 12 10.00 Mostly Cloudy FEW050 SCT090 BKN200 70.3 57.2 63% 29.91 1013.1
15 07:55 N 9 10.00 Mostly Cloudy FEW060 SCT080 BKN200 69.3 58.6 69.6 64.2 69% 29.9 1012.7
15 06:55 NW 7 10.00 Mostly Cloudy SCT045 BKN080 BKN200 65.5 60.4 84% 29.89 1012.4
15 05:55 NW 6 10.00 Mostly Cloudy BKN075 BKN090 BKN200 65.1 59.7 83% 29.87 1011.7
15 04:55 N 8 10.00 Overcast SCT075 BKN100 OVC200 64.8 60.8 87% 29.84 1010.7
15 03:55 N 5 10.00 Overcast BKN060 OVC100 65.5 61.5 87% 29.84 1010.7
15 02:55 N 5 10.00 Overcast FEW050 BKN070 OVC090 66.7 62.1 85% 29.82 1010.0
15 01:55 W 5 10.00 Light Rain FEW020 BKN038 OVC100 68.7 64.9 71.4 68.5 88% 29.83 1010.3 0.03 0.03
15 00:55 SW 3 7.00 Light Rain SCT013 BKN021 BKN035 OVC070 68.9 66.4 92% 29.82 1010.0
14 23:55 Calm 10.00 Overcast FEW039 BKN110 OVC150 69.6 66.6 90% 29.82 1010.0
14 22:55 N 5 10.00 Overcast FEW110 BKN150 OVC200 69.8 66.4 89% 29.81 1009.7
14 21:55 W 5 10.00 Overcast FEW110 BKN140 OVC200 70.9 66 85% 29.82 1010.0
14 20:55 SW 6 10.00 Overcast SCT110 BKN140 OVC200 70.2 65.1 84% 29.79 1009.0
14 19:55 S 3 10.00 Overcast FEW050 BKN100 OVC200 70.2 64.4 76.6 69.8 82% 29.79 1009.0
14 18:55 S 9 10.00 Mostly Cloudy FEW050 SCT100 BKN190 72.1 65.7 80% 29.79 1009.0
14 17:55 S 7 10.00 Mostly Cloudy FEW050 SCT110 BKN190 75 66.6 75% 76 29.78 1008.7
14 16:55 S 7 10.00 Mostly Cloudy FEW050 BKN110 BKN200 75.9 66.2 72% 77 29.8 1009.3
14 15:55 S 7 10.00 Mostly Cloudy FEW010 BKN100 BKN200 76.5 67.5 74% 78 29.8 1009.3
14 14:55 S 5 7.00 Mostly Cloudy SCT150 BKN200 73 68.2 85% 29.82 1010.0
14 13:55 S 7 7.00 Light Rain FEW060 BKN110 OVC210 72.9 69.1 78.4 72.7 88% 29.82 1010.0 0.01 0.02
14 12:55 SW 5 7.00 Light Rain FEW060 OVC110 73.2 68.4 85% 29.82 1010.0 0.01
14 11:55 SW 6 10.00 Mostly Cloudy FEW060 BKN110 BKN200 74.5 67.8 80% 29.83 1010.3
14 10:55 S 5 6.00 Light Rain Fog/Mist FEW038 SCT048 SCT060 BKN100 73.8 67.1 80% 29.82 1010.0 0.01 0.01
14 09:55 SW 9 10.00 Mostly Cloudy SCT110 BKN140 BKN210 76.8 64 65% 79 29.83 1010.3
14 08:55 SW 8 10.00 Mostly Cloudy FEW100 SCT150 BKN250 74.5 63.7 69% 29.83 1010.3
14 07:55 SW 9 10.00 Mostly Cloudy FEW100 FEW150 BKN250 72.5 62.1 72.5 66 70% 29.83 1010.3
14 06:55 SW 7 10.00 Mostly Cloudy FEW150 BKN250 70.2 61.5 74% 29.83 1010.3
14 05:55 SW 8 10.00 A Few Clouds FEW150 FEW250 67.3 59 75% 29.83 1010.3
14 04:55 S 5 10.00 A Few Clouds FEW250 66.9 57.2 71% 29.83 1010.3
14 03:55 S 6 10.00 A Few Clouds FEW250 67.1 55.8 67% 29.82 1010.0
14 02:55 SW 7 10.00 Partly Cloudy SCT250 68.2 55.9 65% 29.83 1010.3
14 01:55 SW 7 10.00 Partly Cloudy SCT250 68.7 56.5 74.8 68.7 65% 29.85 1011.0
14 00:55 SW 7 10.00 Partly Cloudy SCT250 70.9 57.2 62% 29.87 1011.7
13 23:55 SW 7 10.00 Partly Cloudy SCT250 72.9 58.1 60% 29.88 1012.0
13 22:55 SW 7 10.00 Mostly Cloudy BKN250 73.2 59.9 63% 29.88 1012.0
13 21:55 SW 8 10.00 Mostly Cloudy BKN250 74.3 60.4 62% 29.9 1012.7
13 20:55 S 7 10.00 Mostly Cloudy BKN250 72.3 60.3 66% 29.89 1012.4
13 19:55 SE 7 10.00 Mostly Cloudy BKN250 73.4 59.5 81.7 73.4 62% 29.89 1012.4
13 18:55 SE 7 10.00 Mostly Cloudy BKN250 77.2 59.2 54% 79 29.89 1012.4
13 17:55 SE 9 10.00 Mostly Cloudy BKN250 77.5 58.5 52% 79 29.89 1012.4
13 16:55 SE 10 10.00 Partly Cloudy SCT250 77.7 57 49% 79 29.91 1013.1
13 15:55 SE 12 10.00 Partly Cloudy SCT250 78.1 55 45% 79 29.92 1013.4
13 14:55 Calm 10.00 A Few Clouds FEW250 80.2 52.3 38% 80 29.93 1013.7
13 13:55 W 5 10.00 Partly Cloudy SCT250 79.3 51.4 79.7 64.8 38% 79 29.94 1014.1
13 12:55 W 6 10.00 Mostly Cloudy BKN250 77.4 51.1 40% 78 29.96 1014.8
13 11:55 W 9 10.00 Mostly Cloudy FEW060 BKN250 76.5 50.9 41% 78 29.97 1015.1
13 10:55 SW 8 10.00 A Few Clouds FEW050 FEW250 74.3 52.7 47% 29.98 1015.4
13 09:55 W 9 10.00 A Few Clouds FEW250 72.3 55.8 56% 29.98 1015.4
13 08:55 SW 7 10.00 A Few Clouds FEW250 68.4 57.7 69% 29.99 1015.8
13 07:55 W 3 10.00 A Few Clouds FEW250 64.6 56.8 64.6 56.1 76% 29.98 1015.5
13 06:55 W 5 10.00 Fair CLR 62.1 56.5 82% 29.98 1015.5
13 05:55 SW 7 10.00 A Few Clouds FEW250 59.5 55.6 87% 29.97 1015.1
13 04:55 W 7 10.00 A Few Clouds FEW250 59.4 56.7 91% 29.95 1014.4
13 03:55 Calm 7.00 Partly Cloudy SCT250 57.7 56.3 95% 29.93 1013.8
13 02:55 Calm 6.00 Fog/Mist FEW003 FEW080 SCT250 58.6 57.6 96% 29.94 1014.1
13 01:55 Calm 5.00 Fog/Mist FEW070 SCT250 58.3 56.8 66.4 58.3 95% 29.94 1014.1
13 00:55 Calm 10.00 Partly Cloudy FEW075 SCT250 60.8 59 94% 29.96 1014.8
12 23:55 Calm 10.00 Partly Cloudy FEW075 SCT100 SCT250 62.4 60.1 92% 29.95 1014.4
Date Time (edt) Wind (mph) Vis. (mi.) Weather Sky Cond. Air Dwpt Max. Min. Relative Humidity Wind Chill (°F) Heat Index (°F) altimeter (in) sea level (mb) 1 hr 3 hr 6 hr
6 hour
Temperature (ºF) Pressure Precipitation (in)